[[{"header":{"parameterUnit":"m.s-1","parameterCategory":1,"la1":30.2991,"la2":30.254,"lo1":-89.0895,"lo2":-89.0444,"dy":0.0017,"dx":0.0017,"nx":28,"ny":28,"refTime":"2023-10-25T03:00:00:Z","depth":0,"parameterNumber":2,"parameterNumberName":"U-component_of_WINDS"},"data":[0,0,0,0,0,0,0,0,0,0,0,0,0,0,0,0,0,0,0,0,0,0,0,0,0,0,0,0,0,0,0,0,0,0,0,0,0,0,0,0,0,0,0,0,0,0,0,0,0,0,0,0,0,0,0,0,0,0,-4.8797,-4.8797,0,-4.8823,-4.8823,-4.8823,-4.8698,-4.8694,-4.869,-4.8687,-4.8712,-4.8716,-4.872,0,0,0,0,0,0,0,0,0,0,0,0,0,-4.864,-4.8644,-4.8797,-4.8797,-4.8798,-4.8823,-4.8823,-4.8823,-4.8698,-4.8694,-4.869,-4.8685,-4.8711,-4.8716,-4.8721,0,0,0,0,0,0,0,0,0,0,0,0,0,-4.8691,-4.8645,-4.8797,-4.8738,-4.8733,-4.8823,-4.8823,-4.8823,-4.8699,-4.8694,-4.8688,-4.8683,-4.8709,-4.8715,-4.8721,-4.8868,0,0,-4.874,-4.8742,0,0,0,0,0,0,0,0,-4.8688,-4.8697,-4.8747,-4.8743,-4.8737,-4.8751,-4.8777,-4.8838,-4.8701,-4.8712,-4.8687,-4.8681,-4.873,-4.8734,-4.875,-4.8869,-4.887,-4.874,-4.8744,-4.8747,-4.8748,0,0,0,0,0,0,0,-4.8685,-4.8695,-4.8807,-4.8748,-4.8742,-4.8711,-4.8712,-4.8788,-4.8751,-4.8711,-4.8702,-4.8707,-4.8726,-4.8745,-4.875,-4.887,-4.874,-4.8746,-4.8749,-4.8752,-4.9111,-4.9116,0,0,0,0,0,0,-4.8689,-4.8693,-4.8806,-4.8808,-4.8699,-4.8718,-4.8719,-4.8752,-4.875,-4.8744,-4.8711,-4.8701,-4.8737,-4.8743,-4.875,-4.8921,-4.8747,-4.8752,-4.8756,-4.9105,-4.9112,-4.9118,0,0,0,0,0,0,-4.8687,-4.8701,-4.8805,-4.8748,-4.8759,-4.8727,-4.8764,-4.8756,-4.8774,-4.875,-4.8743,-4.8737,-4.8733,-4.8742,-4.884,-4.8921,-4.8755,-4.876,-4.9098,-4.9107,-4.9115,-4.9265,0,0,0,0,0,0,-4.8683,-4.87,-4.8755,-4.875,-4.8763,-4.8894,-4.8769,-4.876,-4.8785,-4.8772,-4.8773,-4.8768,-4.8729,-4.8831,-4.8846,-4.8926,-4.8765,-4.9091,-4.9102,-4.9113,-4.9253,-4.9278,-4.93,0,0,0,0,0,-4.8677,-4.8796,-4.8759,-4.8773,-4.8831,-4.8899,-4.8906,-4.886,-4.8792,-4.8847,-4.8832,-4.8768,-4.891,-4.8842,-4.8857,-4.8941,-4.9085,-4.9099,-4.9112,-4.9242,-4.9273,-4.9299,0,0,0,0,0,0,-4.881,-4.8794,-4.8753,-4.8873,-4.8889,-4.8878,-4.8945,-4.8894,-4.8928,-4.8914,-4.8856,-4.8857,-4.8965,-4.8963,-4.8888,-4.9083,-4.8986,-4.9003,-4.908,-4.9109,-4.9132,-4.913,-4.877,0,0,0,0,0,-4.8854,-4.8911,-4.8894,-4.9002,-4.9012,-4.8979,-4.9006,-4.897,-4.8983,-4.8989,-4.898,-4.8996,-4.9044,-4.9076,-4.9119,-4.9253,-4.9251,-4.9318,-4.9341,-4.9361,-4.9376,-4.9446,-4.9476,-4.9162,-4.9162,-4.9162,0,0,-4.8944,-4.8943,-4.8982,-4.9029,-4.9036,-4.9097,-4.8984,-4.9053,-4.9097,-4.8999,-4.909,-4.9086,-4.9099,-4.9216,-4.9266,-4.9217,-4.9462,-4.9378,-4.9393,-4.9397,-4.9463,-4.9493,-4.9519,-4.9171,-4.9169,-4.9168,0,0,-4.9139,-4.9144,-4.9235,-4.9245,-4.9259,-4.9236,-4.9258,-4.9256,-4.9249,-4.934,-4.9268,-4.9321,-4.9405,-4.9417,-4.9435,-4.9638,-4.9579,-4.9654,-4.9775,-4.9845,-4.987,-4.9891,-4.9963,-4.999,-4.9669,-4.9669,-4.9669,0,-4.9249,-4.9337,-4.9288,-4.9362,-4.9385,-4.93,-4.9392,-4.9405,-4.9431,-4.9449,-4.9394,-4.9499,-4.9502,-4.962,-4.967,-4.9687,-4.9711,-4.9652,-4.987,-4.9892,-4.9911,-4.9979,-5.0006,-4.9678,-4.9677,-4.9676,-4.9675,0,-4.9472,-4.9535,-4.9606,-4.9635,-4.9667,-4.9749,-4.9712,-4.975,-4.9712,-4.9696,-4.9791,-4.9792,-4.9834,-4.986,-4.9823,-4.9974,-4.9943,-4.988,-4.9781,-4.9951,-5.0013,-5.0039,-4.9691,-4.9688,-4.9685,-4.9683,0,0,-4.9748,-4.9751,-4.9778,-4.979,-4.9801,-4.9848,-4.9928,-4.9969,-5.0003,-5.0025,-5.009,-5.0165,-5.0108,-5.0128,-5.0092,-5.0154,-5.0315,-5.0083,-5.0083,-5.0125,-5.0481,-5.0527,-5.0558,-5.0277,-5.0282,-5.0286,-5.048,0,-4.9938,-5.0073,-5.0033,-5.0169,-5.0226,-5.0149,-5.0218,-5.0232,-5.022,-5.0267,-5.0252,-5.0306,-5.0227,-5.0238,-5.0296,-5.0283,-5.0385,-5.0268,-5.0336,-5.0339,-5.0334,-5.0591,-5.0639,-5.0822,-5.0504,-5.0508,-5.0511,0,-5.0177,-5.021,-5.0352,-5.0354,-5.0377,-5.044,-5.0476,-5.0522,-5.0537,-5.0523,-5.0548,-5.05,-5.0578,-5.0481,-5.0588,-5.051,-5.0536,-5.0534,-5.054,-5.0543,-5.0434,-5.06,-5.0879,-5.0906,-5.0549,-5.0546,-5.0544,0,-5.0363,-5.0443,-5.0539,-5.0552,-5.0557,-5.0603,-5.0608,-5.0617,-5.0646,-5.0678,-5.0695,-5.0736,-5.0758,-5.0791,-5.0756,-5.0688,-5.0869,-5.0768,-5.0859,-5.086,-5.0899,-5.0896,-5.1185,-5.0919,-5.0918,-5.0918,-5.0917,0,-5.0578,-5.0668,-5.0623,-5.0682,-5.0781,-5.0734,-5.0833,-5.0828,-5.0838,-5.0895,-5.0831,-5.0886,-5.0836,-5.0887,-5.086,-5.0953,-5.0964,-5.0955,-5.0946,-5.096,-5.0961,-5.0974,-5.096,-5.0925,-5.0923,-5.0922,-5.0921,0,-5.0802,-5.0775,-5.0874,-5.0872,-5.0873,-5.0947,-5.0944,-5.0999,-5.0983,-5.1055,-5.107,-5.1045,-5.1101,-5.107,-5.1127,-5.1109,-5.123,-5.1205,-5.1225,-5.1218,-5.131,-5.1302,-5.1616,-5.1655,-5.1365,-5.1368,-5.137,0,-5.094,-5.1008,-5.1013,-5.1047,-5.1056,-5.1111,-5.114,-5.1098,-5.1131,-5.1155,-5.1206,-5.1258,-5.1296,-5.139,-5.1376,-5.142,-5.1395,-5.1502,-5.1401,-5.1413,-5.1395,-5.1391,-5.1398,-5.1522,-5.1525,-5.1528,-5.153,0,-5.1188,-5.1172,-5.1217,-5.1258,-5.1295,-5.1326,-5.135,-5.1382,-5.134,-5.1381,-5.1438,-5.1468,-5.1528,-5.1579,-5.1618,-5.1622,-5.157,-5.1563,-5.1586,-5.16,-5.1608,-5.1604,-5.1279,-5.1555,-5.1553,-5.1551,-5.155,-5.1549,-5.1372,-5.1429,-5.1442,-5.1495,-5.1509,-5.1535,-5.1586,-5.1578,-5.1625,-5.167,-5.1643,-5.1711,-5.1725,-5.1772,-5.1783,-5.1836,-5.1792,-5.1826,-5.1834,-5.1843,-5.1855,-5.1602,-5.1843,-5.1842,-5.1841,-5.1841,-5.184,0,-5.1615,-5.1621,-5.167,-5.1708,-5.175,-5.1699,-5.1724,-5.1762,-5.1823,-5.1842,-5.1881,-5.1948,-5.1999,-5.1991,-5.2037,-5.208,-5.2058,-5.2094,-5.2089,-5.2091,-5.1892,-5.1866,-5.2111,-5.2111,-5.2111,-5.2111,-5.2111,-5.2111,-5.1747,-5.184,-5.1827,-5.1928,-5.1932,-5.1999,-5.2018,-5.2041,-5.2056,-5.2133,-5.2175,-5.2171,-5.2179,-5.2225,-5.227,-5.2266,-5.2286,-5.233,-5.2318,-5.2132,-5.2105,-5.2079,-5.2055,-5.2335,-5.2336,-5.2513,-5.2514,-5.2516]},{"header":{"parameterUnit":"m.s-1","parameterCategory":1,"la1":30.2991,"la2":30.254,"lo1":-89.0895,"lo2":-89.0444,"dy":0.0017,"dx":0.0017,"nx":28,"ny":28,"refTime":"2023-10-25T03:00:00:Z","depth":0,"parameterNumber":3,"parameterNumberName":"V-component_of_WINDS"},"data":[0,0,0,0,0,0,0,0,0,0,0,0,0,0,0,0,0,0,0,0,0,0,0,0,0,0,0,0,0,0,0,0,0,0,0,0,0,0,0,0,0,0,0,0,0,0,0,0,0,0,0,0,0,0,0,0,0,0,1.3218,1.3218,0,1.321,1.321,1.321,1.3143,1.3141,1.3139,1.3138,1.3128,1.3129,1.3131,0,0,0,0,0,0,0,0,0,0,0,0,0,1.3175,1.3176,1.3218,1.3218,1.3218,1.321,1.321,1.321,1.3143,1.3141,1.3139,1.3137,1.3128,1.3129,1.3131,0,0,0,0,0,0,0,0,0,0,0,0,0,1.3183,1.3177,1.3218,1.3183,1.318,1.321,1.321,1.321,1.3144,1.3141,1.3139,1.3136,1.3127,1.3129,1.3131,1.3193,0,0,1.3137,1.3138,0,0,0,0,0,0,0,0,1.3183,1.3185,1.3189,1.3186,1.3182,1.3175,1.3191,1.3204,1.3144,1.3157,1.3138,1.3135,1.3146,1.3146,1.315,1.3192,1.3192,1.3137,1.3138,1.3139,1.314,0,0,0,0,0,0,0,1.3182,1.3185,1.3215,1.3189,1.3185,1.3169,1.3167,1.3194,1.3166,1.3156,1.3151,1.3151,1.3143,1.3148,1.3149,1.3192,1.3137,1.3139,1.314,1.3141,1.3288,1.3291,0,0,0,0,0,0,1.3187,1.3185,1.3215,1.3215,1.3177,1.3172,1.317,1.318,1.3165,1.316,1.3153,1.3148,1.3146,1.3147,1.3149,1.3222,1.3139,1.3141,1.3142,1.3286,1.3289,1.3292,0,0,0,0,0,0,1.3186,1.319,1.3215,1.3198,1.32,1.3175,1.3187,1.3181,1.3186,1.3163,1.3158,1.3163,1.3144,1.3146,1.3183,1.3221,1.3142,1.3144,1.3283,1.3287,1.3291,1.3369,0,0,0,0,0,0,1.3185,1.319,1.3213,1.32,1.3202,1.325,1.3189,1.3183,1.3189,1.3183,1.3171,1.3167,1.3142,1.3181,1.3185,1.3222,1.3145,1.3279,1.3284,1.3289,1.3363,1.3375,1.3386,0,0,0,0,0,1.3184,1.3234,1.3215,1.3219,1.323,1.3252,1.3254,1.3225,1.3193,1.3216,1.3202,1.3167,1.3216,1.3185,1.319,1.3228,1.3276,1.3283,1.3289,1.3358,1.3373,1.3386,0,0,0,0,0,0,1.3251,1.3232,1.321,1.3257,1.3257,1.3241,1.3269,1.3241,1.325,1.3243,1.3207,1.3205,1.3249,1.3241,1.3207,1.3289,1.3241,1.3248,1.3291,1.3305,1.3317,1.3318,1.3147,0,0,0,0,0,1.3272,1.3292,1.3274,1.3317,1.3319,1.3295,1.3303,1.3282,1.328,1.3279,1.3268,1.3267,1.3283,1.3294,1.3306,1.3362,1.3359,1.339,1.3402,1.3411,1.3418,1.345,1.3464,1.3313,1.3312,1.3312,0,0,1.3314,1.3306,1.332,1.3331,1.3328,1.3351,1.3295,1.332,1.3337,1.3283,1.3318,1.3311,1.3308,1.3355,1.3376,1.3351,1.346,1.3419,1.3427,1.3429,1.3458,1.3472,1.3485,1.3317,1.3316,1.3315,0,0,1.3402,1.3398,1.3435,1.3435,1.3433,1.3417,1.3426,1.3415,1.3408,1.3444,1.3405,1.3424,1.3451,1.3452,1.3455,1.3549,1.3518,1.3554,1.3614,1.3645,1.3657,1.3668,1.3703,1.3716,1.3561,1.3561,1.3561,0,1.3455,1.3487,1.3457,1.3487,1.3493,1.3448,1.3486,1.3487,1.3489,1.3495,1.3468,1.3503,1.3497,1.3546,1.357,1.3573,1.3584,1.3555,1.3658,1.3668,1.3677,1.3711,1.3724,1.3566,1.3565,1.3565,1.3564,0,1.3553,1.3576,1.3607,1.3612,1.3622,1.3656,1.3632,1.3646,1.3625,1.3612,1.365,1.3643,1.3655,1.3665,1.3643,1.3712,1.3697,1.3664,1.3615,1.3697,1.3728,1.374,1.3572,1.3571,1.3569,1.3568,0,0,1.3681,1.3672,1.3684,1.3687,1.3684,1.3701,1.3734,1.3747,1.3761,1.3765,1.3792,1.3818,1.3789,1.3794,1.3772,1.38,1.3877,1.3764,1.3764,1.3787,1.3955,1.398,1.3995,1.3857,1.3859,1.3861,1.3956,0,1.3767,1.3823,1.3799,1.3857,1.388,1.3839,1.3868,1.387,1.386,1.3878,1.3866,1.3886,1.3845,1.3849,1.3874,1.3863,1.3911,1.3855,1.3883,1.3884,1.3886,1.401,1.4036,1.4125,1.3967,1.3969,1.397,0,1.3875,1.3886,1.3947,1.3943,1.3952,1.3978,1.399,1.4008,1.4009,1.4,1.4008,1.3981,1.4014,1.3966,1.4012,1.3975,1.3985,1.3981,1.3984,1.3986,1.3933,1.4017,1.4153,1.4167,1.3989,1.3987,1.3986,0,1.3965,1.3994,1.4036,1.404,1.4035,1.4055,1.4054,1.4053,1.4064,1.4075,1.4082,1.4096,1.4103,1.4115,1.4094,1.406,1.4143,1.4093,1.4138,1.4138,1.4156,1.4156,1.4298,1.4162,1.4162,1.4162,1.4161,0,1.4064,1.4103,1.4077,1.4102,1.4146,1.4119,1.4163,1.4157,1.4158,1.4182,1.4147,1.4171,1.4141,1.4162,1.4145,1.4187,1.419,1.4185,1.418,1.4188,1.4189,1.4194,1.4188,1.4165,1.4164,1.4164,1.4163,0,1.4171,1.4154,1.4197,1.4191,1.419,1.4223,1.4217,1.4241,1.423,1.4262,1.4268,1.425,1.4274,1.4254,1.4275,1.4264,1.4321,1.4306,1.4321,1.4317,1.4364,1.436,1.4514,1.4534,1.4385,1.4386,1.4388,0,1.4235,1.4265,1.4264,1.4278,1.428,1.4303,1.4315,1.4291,1.4304,1.4311,1.4335,1.4356,1.4371,1.441,1.44,1.4417,1.4404,1.4457,1.4406,1.4415,1.4406,1.4405,1.4409,1.4467,1.4469,1.447,1.4471,0,1.4353,1.4344,1.4363,1.438,1.4396,1.4408,1.4417,1.4431,1.4406,1.4423,1.4448,1.446,1.4485,1.4506,1.4521,1.452,1.4492,1.4488,1.4499,1.4508,1.4516,1.4514,1.435,1.4484,1.4483,1.4482,1.4481,1.448,1.4441,1.4468,1.4472,1.4494,1.4499,1.451,1.4533,1.4526,1.4547,1.4565,1.455,1.458,1.4584,1.4601,1.4604,1.4628,1.4606,1.4622,1.4626,1.4631,1.4638,1.4512,1.463,1.4629,1.4629,1.4629,1.4629,0,1.4558,1.456,1.4582,1.4597,1.4616,1.459,1.46,1.4617,1.4645,1.4651,1.4668,1.4698,1.472,1.4712,1.4732,1.4753,1.4741,1.4759,1.4757,1.4758,1.4656,1.4645,1.4768,1.4768,1.4768,1.4768,1.4768,1.4768,1.4622,1.4665,1.4658,1.4705,1.4705,1.4736,1.4744,1.4754,1.476,1.4795,1.4814,1.481,1.4811,1.4832,1.4851,1.4848,1.4858,1.4881,1.4874,1.4779,1.4765,1.4752,1.4741,1.4883,1.4883,1.4974,1.4975,1.4976]}]]